Powrót do katalogu

MINOTAUR DEB

AktywnyLEO
NORAD 26079·DEBRIS·🇺🇸 United States

Wystrzelony Jan 27, 2000 z Vandenberg Space Force Base

Loading…

Następne Przeloty (najbliższe 24 godziny)

TLE

ŚwieżeSource: Space-Track

Epoka: Sep 14, 2026, 09:57 UTC

1 26079U 00004G   26257.41495648  .00000505  00000-0  14696-3 0  9990
2 26079 100.2036 319.6008 0030854 251.4343 174.2161 14.49691116400533

Śledź MINOTAUR DEB w czasie rzeczywistym z AllMySat

Download on the App Store